Weather History for New River MCAS, NC

Change the Weather History Date:

Sunday, October 26, 2014

  Actual Average Record
Temperature  
Mean Temperature 65 °F -  
Max Temperature 80 °F 70 °F 84 °F (2010)
Min Temperature 50 °F 48 °F 33 °F (2013)
Growing Degree Days 15 (Base 50)    
Moisture  
Dew Point 47 °F    
Average Humidity 62    
Maximum Humidity 93    
Minimum Humidity 24    
Precipitation  
Precipitation 0.00 in - - ()
Sea Level Pressure  
Sea Level Pressure 29.88 in    
Wind  
Wind Speed 8 mph (WNW)    
Max Wind Speed 17 mph    
Max Gust Speed 22 mph    
Visibility 10 miles    
Events      
Averages and records for this station are not official NWS values.
T = Trace of Precipitation, MM = Missing Value Source: NWS Daily Summary

Daily Weather History Graph

Daily Weather History Graph

Search for Another Location

Airport:

Trip Planner

Search our weather history database for the weather conditions in past years. The results will help you decide how hot, cold, wet, or windy it might be!

Date:

Astronomy

Oct. 26, 2014 Rise Set
Actual Time 7:24 AM EDT 6:22 PM EDT
Civil Twilight 6:59 AM EDT 6:47 PM EDT
Nautical Twilight 6:29 AM EDT 7:17 PM EDT
Astronomical Twilight 6:00 AM EDT 7:46 PM EDT
Moon 9:56 AM EDT (10/26) 8:36 PM EDT (10/26)
Length of Visible Light 11h 48m
Length of Day
10h 57m
Waxing Crescent, 8% of the Moon is Illuminated
Oct 26
Waxing Crescent
Oct 30
First Quarter
Nov 6
Full
Nov 14
Last Quarter
Nov 22
New

Hourly Weather History & Observations

Time (EDT) Temp. Dew Point Humidity Pressure Visibility Wind Dir Wind Speed Gust Speed Precip Events Conditions
12:56 AM 54.0 °F 46.0 °F 75% 29.87 in 10.0 mi WSW 6.9 mph - N/A   Clear
1:56 AM 54.0 °F 45.0 °F 72% 29.86 in 10.0 mi WSW 8.1 mph - N/A   Clear
2:56 AM 55.0 °F 44.1 °F 67% 29.85 in 10.0 mi WSW 9.2 mph - N/A   Clear
3:56 AM 54.0 °F 44.1 °F 69% 29.83 in 10.0 mi West 8.1 mph - N/A   Clear
4:56 AM 53.1 °F 44.1 °F 71% 29.83 in 10.0 mi West 8.1 mph - N/A   Clear
5:56 AM 52.0 °F 45.0 °F 77% 29.84 in 10.0 mi West 8.1 mph - N/A   Clear
6:56 AM 52.0 °F 45.0 °F 77% 29.85 in 10.0 mi West 5.8 mph - N/A   Clear
7:56 AM 53.1 °F 46.0 °F 77% 29.87 in 10.0 mi West 4.6 mph - N/A   Clear
8:56 AM 57.9 °F 48.0 °F 70% 29.89 in 10.0 mi West 4.6 mph - N/A   Clear
9:56 AM 64.9 °F 51.1 °F 61% 29.90 in 10.0 mi West 6.9 mph - N/A   Clear
10:56 AM 70.0 °F 52.0 °F 53% 29.90 in 10.0 mi West 8.1 mph - N/A   Clear
11:56 AM 73.0 °F 52.0 °F 48% 29.88 in 10.0 mi NW 11.5 mph - N/A   Clear
12:56 PM 77.0 °F 52.0 °F 42% 29.86 in 10.0 mi NW 12.7 mph - N/A   Clear
1:56 PM 78.1 °F 48.0 °F 35% 29.84 in 10.0 mi WNW 16.1 mph - N/A   Clear
2:56 PM 79.0 °F 46.0 °F 31% 29.83 in 10.0 mi WNW 15.0 mph - N/A   Clear
3:56 PM 79.0 °F 39.9 °F 25% 29.84 in 10.0 mi NW 13.8 mph 21.9 mph N/A   Clear
4:56 PM 77.0 °F 37.9 °F 24% 29.86 in 10.0 mi NNW 17.3 mph 21.9 mph N/A   Clear
5:56 PM 73.0 °F 41.0 °F 31% 29.88 in 10.0 mi NNW 8.1 mph - N/A   Clear
6:56 PM 63.0 °F 46.9 °F 56% 29.90 in 10.0 mi Calm Calm - N/A   Clear
7:56 PM 59.0 °F 48.0 °F 67% 29.92 in 10.0 mi Calm Calm - N/A   Clear
8:56 PM 54.0 °F 50.0 °F 86% 29.94 in 10.0 mi Calm Calm - N/A   Clear
9:56 PM 53.1 °F 48.9 °F 86% 29.96 in 10.0 mi Calm Calm - N/A   Clear
10:56 PM 51.1 °F 48.0 °F 89% 29.97 in 10.0 mi Calm Calm - N/A   Clear
11:56 PM 50.0 °F 48.0 °F 93% 29.98 in 10.0 mi Calm Calm - N/A   Clear